Location: Guadanolo
(41.9167°N, 12.9333°E)
Time: 08:49:31
(UTC+00:00)

HJ-1C - Pass Details

Date: 16 September 2019
Orbit: 435 x 449 km, 97.2° (Epoch: 14 October)

Event Time Altitude Azimuth Distance (km) Brightness Sun altitude
Rises 17:59:02 0° 157° (SSE) 2,427 6.8 -8.6°
Reaches altitude 10° 18:01:04 10° 152° (SSE) 1,564 5.8 -9.0°
Maximum altitude 18:04:20 53° 75° (ENE) 559 3.5 -9.6°
Drops below altitude 10° 18:07:39 10° 358° (N) 1,584 6.4 -10.2°
Sets 18:09:43 0° 353° (N) 2,462 7.4 -10.6°
